GW7941 Weather Reports


Display with metric or nautical units.
time (UTC)temp
F
wind
direction
speed
MPH
gust
MPH
rain 1hr
in
rain 24hr
in
rain mn
in
humidity
%
barometer
mb
20260901070810 60 228 0.0 3.0 0.00 0.00 0.00 92 1008.8
20260901070305 60 265 1.0 2.0 0.00 0.00 0.00 92 1008.8
20260901065805 60 257 0.0 0.0 0.00 0.00 0.00 92 1008.8
20260901065300 60 285 1.0 2.0 0.00 0.00 0.00 92 1008.6
20260901064756 60 233 1.0 2.0 0.00 0.00 0.00 92 1008.6
20260901064252 61 277 0.0 3.0 0.00 0.00 0.00 92 1008.6
20260901063749 61 281 2.0 4.0 0.00 0.00 0.00 92 1008.4
20260901063245 61 249 2.0 4.0 0.00 0.00 0.00 91 1008.6
20260901062741 61 255 2.0 4.0 0.00 0.00 0.00 92 1008.7
20260901062237 61 319 2.0 6.0 0.00 0.00 0.00 91 1008.5
20260901061733 61 253 1.0 2.0 0.00 0.00 0.00 91 1008.7
20260901061232 61 284 0.0 3.0 0.00 0.00 0.00 91 1008.5
20260901060727 61 252 0.0 1.0 0.00 0.00 0.00 91 1008.6
20260901060222 62 264 2.0 4.0 0.00 0.00 0.00 90 1008.6
20260901055718 62 292 2.0 4.0 0.00 0.00 0.00 90 1008.5
20260901055215 62 275 0.0 2.0 0.00 0.00 0.00 90 1008.5
20260901054711 62 284 2.0 3.0 0.00 0.00 0.00 90 1008.3
20260901054208 62 271 0.0 3.0 0.00 0.00 0.00 90 1008.5
20260901053703 62 277 1.0 2.0 0.00 0.00 0.00 90 1008.5
20260901053158 62 238 2.0 3.0 0.00 0.00 0.00 89 1008.4
20260901052654 63 286 1.0 4.0 0.00 0.00 0.00 89 1008.4
20260901052149 63 285 0.0 2.0 0.00 0.00 0.00 88 1008.2
20260901051648 63 279 1.0 2.0 0.00 0.00 0.00 88 1008.2
20260901051148 63 274 4.0 6.0 0.00 0.00 0.00 87 1008.1
20260901050643 63 238 0.0 2.0 0.00 0.00 0.00 86 1008.2
20260901050138 64 219 1.0 2.0 0.00 0.00 0.00 86 1008.0
20260901045638 64 304 1.0 3.0 0.00 0.00 0.00 86 1008.0
20260901045133 64 293 0.0 0.0 0.00 0.00 0.00 85 1007.7
20260901044628 64 269 0.0 1.0 0.00 0.00 0.00 85 1007.7
20260901044125 64 286 1.0 2.0 0.00 0.00 0.00 84 1007.7
20260901043620 65 274 0.0 1.0 0.00 0.00 0.00 84 1007.7
20260901043116 65 295 0.0 2.0 0.00 0.00 0.00 83 1007.8
20260901042614 65 248 0.0 4.0 0.00 0.00 0.00 82 1007.9
20260901042110 65 242 1.0 4.0 0.00 0.00 0.00 82 1008.0
20260901041606 66 297 0.0 3.0 0.00 0.00 0.00 81 1008.2
20260901041100 66 283 0.0 3.0 0.00 0.00 0.00 80 1007.9
20260901040600 66 270 0.0 1.0 0.00 0.00 0.00 80 1008.0
20260901040055 66 244 0.0 4.0 0.00 0.00 0.00 80 1007.9
20260901035553 67 266 1.0 3.0 0.00 0.00 0.00 79 1007.8
20260901035052 67 296 2.0 4.0 0.00 0.00 0.00 78 1007.5
20260901034551 67 253 1.0 4.0 0.00 0.00 0.00 78 1007.6
20260901034051 68 268 2.0 6.0 0.00 0.00 0.00 77 1007.3
20260901033550 68 281 1.0 4.0 0.00 0.00 0.00 76 1007.4
20260901033045 69 282 5.0 8.0 0.00 0.00 0.00 75 1007.2
20260901032544 69 298 2.0 7.0 0.00 0.00 0.00 75 1007.2
20260901032039 69 301 2.0 6.0 0.00 0.00 0.00 74 1006.8
20260901031534 70 180 2.0 4.0 0.00 0.00 0.00 73 1006.8
20260901031030 70 268 1.0 4.0 0.00 0.00 0.00 73 1006.9
20260901030530 70 255 1.0 6.0 0.00 0.00 0.00 72 1006.8
20260901030030 71 311 1.0 4.0 0.00 0.00 0.00 71 1007.0
20260901025525 71 270 4.0 6.0 0.00 0.00 0.00 71 1006.7
20260901025024 72 252 1.0 4.0 0.00 0.00 0.00 70 1006.8
20260901024520 72 269 1.0 3.0 0.00 0.00 0.00 69 1006.7
20260901024019 73 285 1.0 6.0 0.00 0.00 0.00 68 1006.7
20260901023518 73 280 4.0 7.0 0.00 0.00 0.00 67 1006.6
20260901023014 74 306 0.0 3.0 0.00 0.00 0.00 67 1006.5
20260901022509 74 277 0.0 2.0 0.00 0.00 0.00 65 1006.5
20260901022004 75 288 1.0 8.0 0.00 0.00 0.00 64 1006.5
20260901021459 76 300 4.0 8.0 0.00 0.00 0.00 62 1006.4
20260901020954 77 306 4.0 8.0 0.00 0.00 0.00 60 1006.5
20260901020450 77 282 1.0 7.0 0.00 0.00 0.00 58 1006.3
20260901015948 78 313 4.0 7.0 0.00 0.00 0.00 56 1006.2
20260901015445 78 252 2.0 6.0 0.00 0.00 0.00 55 1006.2
20260901014945 79 303 3.0 7.0 0.00 0.00 0.00 54 1006.2
20260901014441 79 251 1.0 4.0 0.00 0.00 0.00 52 1006.2
20260901013936 80 256 0.0 7.0 0.00 0.00 0.00 51 1006.0
20260901013432 80 269 4.0 8.0 0.00 0.00 0.00 50 1006.1
20260901012928 82 296 3.0 6.0 0.00 0.00 0.00 49 1006.0
20260901012422 82 268 0.0 6.0 0.00 0.00 0.00 48 1006.1
20260901011918 83 269 0.0 4.0 0.00 0.00 0.00 49 1006.1
20260901011414 83 277 4.0 6.0 0.00 0.00 0.00 46 1006.2
20260901010912 84 283 1.0 7.0 0.00 0.00 0.00 45 1006.1
20260901010407 84 294 0.0 2.0 0.00 0.00 0.00 45 1006.1
20260901005906 83 207 2.0 7.0 0.00 0.00 0.00 43 1005.9
20260901005401 84 256 2.0 3.0 0.00 0.00 0.00 44 1005.9
20260901004856 84 295 3.0 4.0 0.00 0.00 0.00 42 1006.1
20260901004355 84 257 1.0 3.0 0.00 0.00 0.00 41 1006.1
20260901003850 85 273 0.0 3.0 0.00 0.00 0.00 40 1006.0
20260901003345 87 297 0.0 0.0 0.00 0.00 0.00 40 1006.0
20260901002843 87 284 2.0 3.0 0.00 0.00 0.00 39 1006.0
20260901002343 86 275 0.0 1.0 0.00 0.00 0.00 42 1005.9
20260901001844 86 213 1.0 3.0 0.00 0.00 0.00 41 1006.1
20260901001339 86 281 1.0 2.0 0.00 0.00 0.00 42 1006.0
20260901000835 85 268 0.0 0.0 0.00 0.00 0.00 43 1006.0
20260901000330 85 184 0.0 2.0 0.00 0.00 0.00 41 1006.0
20260831235828 84 285 0.0 1.0 0.00 0.00 0.00 42 1006.1
20260831235324 84 292 0.0 0.0 0.00 0.00 0.00 43 1006.1
20260831234824 85 235 0.0 1.0 0.00 0.00 0.00 41 1006.2
20260831234319 84 260 0.0 0.0 0.00 0.00 0.00 42 1006.3
20260831233814 84 63 0.0 0.0 0.00 0.00 0.00 42 1006.2
20260831233309 84 259 0.0 0.0 0.00 0.00 0.00 43 1006.2
20260831232804 84 309 0.0 2.0 0.00 0.00 0.00 44 1006.4
20260831232301 84 75 0.0 0.0 0.00 0.00 0.00 43 1006.3
20260831231756 84 265 0.0 1.0 0.00 0.00 0.00 43 1006.5
20260831231253 84 297 0.0 0.0 0.00 0.00 0.00 43 1006.4
20260831230753 83 233 0.0 0.0 0.00 0.00 0.00 44 1006.5
20260831230248 83 293 0.0 0.0 0.00 0.00 0.00 44 1006.4
20260831225748 83 96 0.0 0.0 0.00 0.00 0.00 43 1006.6
20260831225243 83 41 1.0 2.0 0.00 0.00 0.00 43 1006.6
20260831224738 83 113 1.0 2.0 0.00 0.00 0.00 43 1006.7
20260831224233 83 62 0.0 0.0 0.00 0.00 0.00 45 1007.0
20260831223728 83 279 0.0 0.0 0.00 0.00 0.00 43 1006.8
20260831223225 83 164 0.0 1.0 0.00 0.00 0.00 45 1006.8
20260831222721 84 355 0.0 0.0 0.00 0.00 0.00 45 1006.8
20260831222216 84 53 0.0 1.0 0.00 0.00 0.00 43 1006.9
20260831221712 86 206 0.0 0.0 0.00 0.00 0.00 41 1006.8
20260831221207 85 44 0.0 0.0 0.00 0.00 0.00 43 1007.0
20260831220702 85 49 0.0 2.0 0.00 0.00 0.00 43 1006.9
20260831220157 85 278 0.0 0.0 0.00 0.00 0.00 43 1007.2
20260831215652 84 257 0.0 3.0 0.00 0.00 0.00 45 1007.2
20260831215148 85 251 0.0 1.0 0.00 0.00 0.00 44 1007.4
20260831214645 84 55 0.0 3.0 0.00 0.00 0.00 45 1007.4
20260831214141 84 160 0.0 0.0 0.00 0.00 0.00 44 1007.6
20260831213637 85 292 0.0 0.0 0.00 0.00 0.00 45 1007.6
20260831213132 82 33 0.0 0.0 0.00 0.00 0.00 46 1007.5
20260831212628 83 311 1.0 2.0 0.00 0.00 0.00 47 1007.7
20260831212125 83 309 0.0 3.0 0.00 0.00 0.00 49 1007.8
20260831211624 83 195 0.0 0.0 0.00 0.00 0.00 46 1007.8
20260831211123 82 240 2.0 2.0 0.00 0.00 0.00 45 1007.6
20260831210619 83 253 0.0 2.0 0.00 0.00 0.00 47 1007.7
20260831210115 82 236 0.0 0.0 0.00 0.00 0.00 49 1007.8
20260831205614 82 74 0.0 0.0 0.00 0.00 0.00 47 1007.9
20260831205110 82 227 0.0 1.0 0.00 0.00 0.00 48 1008.1
20260831204605 81 315 0.0 0.0 0.00 0.00 0.00 48 1008.1
20260831204103 82 273 0.0 2.0 0.00 0.00 0.00 47 1007.9
20260831203603 82 312 0.0 0.0 0.00 0.00 0.00 50 1008.4
20260831203102 81 324 0.0 1.0 0.00 0.00 0.00 50 1008.2
20260831202601 81 203 0.0 3.0 0.00 0.00 0.00 49 1008.2
20260831202102 81 259 0.0 0.0 0.00 0.00 0.00 48 1008.5
20260831201600 80 221 0.0 0.0 0.00 0.00 0.00 50 1008.6
20260831201055 81 56 0.0 2.0 0.00 0.00 0.00 49 1008.4
20260831200551 80 38 1.0 3.0 0.00 0.00 0.00 49 1008.7
20260831200052 80 37 1.0 3.0 0.00 0.00 0.00 51 1008.8
20260831195547 79 60 0.0 2.0 0.00 0.00 0.00 54 1009.0
20260831195042 79 86 0.0 3.0 0.00 0.00 0.00 51 1008.9
20260831194537 80 64 0.0 4.0 0.00 0.00 0.00 52 1008.8
20260831194032 79 49 2.0 7.0 0.00 0.00 0.00 51 1009.1
20260831193527 78 62 0.0 2.0 0.00 0.00 0.00 53 1009.1
20260831193022 78 54 1.0 3.0 0.00 0.00 0.00 53 1009.3
20260831192517 78 89 0.0 2.0 0.00 0.00 0.00 52 1009.3
20260831192013 77 265 2.0 3.0 0.00 0.00 0.00 53 1009.1
20260831191509 77 53 1.0 3.0 0.00 0.00 0.00 57 1009.3
20260831191005 77 175 0.0 4.0 0.00 0.00 0.00 54 1009.5
20260831190500 78 210 0.0 1.0 0.00 0.00 0.00 54 1009.6
20260831185958 76 197 0.0 1.0 0.00 0.00 0.00 55 1009.8
20260831185454 77 62 1.0 4.0 0.00 0.00 0.00 54 1009.9
20260831184954 76 54 2.0 4.0 0.00 0.00 0.00 55 1009.6
20260831184449 75 62 0.0 1.0 0.00 0.00 0.00 57 1009.7
20260831183944 75 80 0.0 2.0 0.00 0.00 0.00 60 1009.9
20260831183443 75 63 1.0 4.0 0.00 0.00 0.00 58 1009.9
20260831182943 75 222 0.0 2.0 0.00 0.00 0.00 57 1010.0
20260831182439 75 51 1.0 2.0 0.00 0.00 0.00 57 1010.2
20260831181934 73 165 0.0 1.0 0.00 0.00 0.00 62 1010.2
20260831181429 73 252 0.0 3.0 0.00 0.00 0.00 61 1010.5
20260831180924 72 304 0.0 2.0 0.00 0.00 0.00 64 1010.4
20260831180423 71 329 0.0 6.0 0.00 0.00 0.00 64 1010.5
20260831175923 71 90 1.0 8.0 0.00 0.00 0.00 65 1010.5
20260831175420 71 65 1.0 2.0 0.00 0.00 0.00 64 1010.5
20260831174915 70 8 2.0 3.0 0.00 0.00 0.00 64 1010.7
20260831174410 70 70 1.0 4.0 0.00 0.00 0.00 66 1010.8
20260831173909 69 103 0.0 2.0 0.00 0.00 0.00 69 1010.6
20260831173403 71 81 2.0 4.0 0.00 0.00 0.00 65 1011.0
20260831172859 71 242 0.0 0.0 0.00 0.00 0.00 64 1011.2
20260831172355 70 124 0.0 1.0 0.00 0.00 0.00 65 1011.0
20260831171854 69 307 0.0 0.0 0.00 0.00 0.00 68 1011.0
20260831171350 70 289 1.0 2.0 0.00 0.00 0.00 69 1011.0
20260831170847 69 212 0.0 4.0 0.00 0.00 0.00 70 1011.2
20260831170343 69 85 0.0 1.0 0.00 0.00 0.00 69 1011.0
20260831165839 68 293 0.0 0.0 0.00 0.00 0.00 72 1011.0
20260831165335 67 236 0.0 0.0 0.00 0.00 0.00 71 1011.1
20260831164831 67 63 0.0 0.0 0.00 0.00 0.00 72 1011.1
20260831164327 66 272 0.0 1.0 0.00 0.00 0.00 73 1011.3
20260831163823 66 266 0.0 0.0 0.00 0.00 0.00 74 1011.4
20260831163318 65 178 0.0 0.0 0.00 0.00 0.00 76 1011.4
20260831162816 64 177 0.0 1.0 0.00 0.00 0.00 78 1011.4
20260831162312 64 299 0.0 1.0 0.00 0.00 0.00 77 1011.3
20260831161810 64 215 0.0 0.0 0.00 0.00 0.00 78 1011.4
20260831161307 63 213 0.0 0.0 0.00 0.00 0.00 80 1011.5
20260831160802 62 213 0.0 1.0 0.00 0.00 0.00 81 1011.6
20260831160256 62 305 0.0 0.0 0.00 0.00 0.00 83 1011.8
20260831155756 61 276 0.0 0.0 0.00 0.00 0.00 82 1011.9
20260831155251 61 244 0.0 0.0 0.00 0.00 0.00 83 1011.8
20260831154747 60 203 0.0 0.0 0.00 0.00 0.00 85 1011.8
20260831154243 60 207 0.0 0.0 0.00 0.00 0.00 85 1011.7
20260831153742 60 180 0.0 0.0 0.00 0.00 0.00 88 1011.8
20260831153238 58 254 0.0 0.0 0.00 0.00 0.00 91 1012.0
20260831152733 58 175 0.0 0.0 0.00 0.00 0.00 91 1012.0
20260831152229 58 161 0.0 0.0 0.00 0.00 0.00 94 1012.2
20260831151729 58 164 0.0 0.0 0.00 0.00 0.00 96 1012.1
20260831151229 57 154 0.0 0.0 0.00 0.00 0.00 99 1012.1
20260831150724 56 155 0.0 0.0 0.00 0.00 0.00 99 1012.1
20260831150219 55 155 0.0 0.0 0.00 0.00 0.00 99 1012.2
20260831145719 55 120 0.0 0.0 0.00 0.00 0.00 99 1012.2
20260831145216 54 134 0.0 0.0 0.00 0.00 0.00 99 1012.1
20260831144711 53 134 0.0 0.0 0.00 0.00 0.00 99 1012.2
20260831144207 52 137 0.0 0.0 0.00 0.00 0.00 99 1012.2
20260831143706 51 138 0.0 0.0 0.00 0.00 0.00 99 1012.2
20260831143202 50 138 0.0 0.0 0.00 0.00 0.00 99 1012.1
20260831142658 49 138 0.0 0.0 0.00 0.00 0.00 99 1012.1
20260831142153 49 138 0.0 0.0 0.00 0.00 0.00 99 1012.4
20260831141652 49 144 0.0 0.0 0.00 0.00 0.00 99 1012.4
20260831141147 49 93 0.0 0.0 0.00 0.00 0.00 99 1012.4
20260831140646 48 158 0.0 0.0 0.00 0.00 0.00 99 1012.4
20260831140141 48 101 0.0 0.0 0.00 0.00 0.00 99 1012.1
20260831135639 48 93 0.0 0.0 0.00 0.00 0.00 99 1012.2
20260831135135 48 213 0.0 0.0 0.00 0.00 0.00 99 1012.2
20260831134631 48 156 0.0 0.0 0.00 0.00 0.00 99 1012.2
20260831134126 48 170 0.0 0.0 0.00 0.00 0.00 99 1012.2
20260831133625 48 171 0.0 0.0 0.00 0.00 0.00 99 1012.3
20260831133120 48 163 0.0 0.0 0.00 0.00 0.00 99 1012.1
20260831132616 48 113 0.0 0.0 0.00 0.00 0.00 99 1012.2
20260831132115 48 186 0.0 0.0 0.00 0.00 0.00 99 1012.4
20260831131610 48 121 0.0 0.0 0.00 0.00 0.00 99 1012.3
20260831131106 48 316 0.0 0.0 0.00 0.00 0.00 99 1012.1
20260831130601 48 299 0.0 0.0 0.00 0.00 0.00 99 1012.3
20260831130056 48 169 0.0 0.0 0.00 0.00 0.00 99 1012.4
20260831125555 48 173 0.0 0.0 0.00 0.00 0.00 99 1012.5
20260831125051 48 173 0.0 0.0 0.00 0.00 0.00 99 1012.3
20260831124547 48 158 0.0 0.0 0.00 0.00 0.00 99 1012.4
20260831124042 48 177 0.0 0.0 0.00 0.00 0.00 99 1012.7
20260831123541 48 144 0.0 0.0 0.00 0.00 0.00 99 1012.5
20260831123036 48 86 0.0 0.0 0.00 0.00 0.00 99 1012.4
20260831122531 48 161 0.0 0.0 0.00 0.00 0.00 99 1012.4
20260831122026 48 136 0.0 0.0 0.00 0.00 0.00 99 1012.5
20260831121521 48 137 0.0 0.0 0.00 0.00 0.00 99 1012.7
20260831121017 48 134 0.0 0.0 0.00 0.00 0.00 99 1012.6
20260831120516 48 125 0.0 0.0 0.00 0.00 0.00 99 1012.7
20260831120012 48 183 0.0 0.0 0.00 0.00 0.00 99 1012.7
20260831115508 49 190 0.0 0.0 0.00 0.00 0.00 99 1012.9
20260831115009 48 273 0.0 0.0 0.00 0.00 0.00 99 1012.9
20260831114507 49 269 0.0 0.0 0.00 0.00 0.00 99 1012.8
20260831114003 49 269 0.0 0.0 0.00 0.00 0.00 99 1012.7
20260831113502 49 286 0.0 0.0 0.00 0.00 0.00 99 1012.8
20260831112958 49 287 0.0 0.0 0.00 0.00 0.00 99 1012.8
20260831112457 49 287 0.0 0.0 0.00 0.00 0.00 99 1013.0
20260831111952 49 159 0.0 0.0 0.00 0.00 0.00 99 1013.1
20260831111448 49 124 0.0 0.0 0.00 0.00 0.00 99 1012.9
20260831110944 49 114 0.0 0.0 0.00 0.00 0.00 99 1013.1
20260831110439 50 230 0.0 0.0 0.00 0.00 0.00 99 1012.9
20260831105938 49 221 0.0 0.0 0.00 0.00 0.00 99 1013.3
20260831105433 49 221 0.0 0.0 0.00 0.00 0.00 99 1013.1
20260831104928 49 277 0.0 0.0 0.00 0.00 0.00 99 1013.3
20260831104425 49 292 0.0 0.0 0.00 0.00 0.00 99 1013.3
20260831103920 49 295 0.0 0.0 0.00 0.00 0.00 99 1013.1
20260831103420 49 193 0.0 0.0 0.00 0.00 0.00 99 1013.2
20260831102915 50 135 0.0 0.0 0.00 0.00 0.00 99 1013.3
20260831102415 50 142 0.0 0.0 0.00 0.00 0.00 99 1013.2
20260831101911 50 154 0.0 0.0 0.00 0.00 0.00 99 1013.3
20260831101406 49 155 0.0 0.0 0.00 0.00 0.00 99 1013.3
20260831100902 49 120 0.0 0.0 0.00 0.00 0.00 99 1013.3
20260831100358 49 154 0.0 0.0 0.00 0.00 0.00 99 1013.4
20260831095858 49 175 0.0 0.0 0.00 0.00 0.00 99 1013.5
20260831095357 50 178 0.0 0.0 0.00 0.00 0.00 99 1013.5
20260831094853 50 130 0.0 0.0 0.00 0.00 0.00 99 1013.6
20260831094348 50 124 0.0 0.0 0.00 0.00 0.00 99 1013.5
20260831093844 50 117 0.0 0.0 0.00 0.00 0.00 99 1013.5
20260831093339 50 150 0.0 0.0 0.00 0.00 0.00 99 1013.5
20260831092835 50 169 0.0 0.0 0.00 0.00 0.00 99 1013.6
20260831092331 50 171 0.0 0.0 0.00 0.00 0.00 99 1013.7
20260831091826 51 157 0.0 0.0 0.00 0.00 0.00 99 1013.9
20260831091321 50 181 0.0 0.0 0.00 0.00 0.00 99 1013.8
20260831090816 50 193 0.0 0.0 0.00 0.00 0.00 99 1013.8
20260831090312 50 194 0.0 0.0 0.00 0.00 0.00 99 1013.9
20260831085809 51 215 0.0 0.0 0.00 0.00 0.00 99 1013.8
20260831085306 51 197 0.0 0.0 0.00 0.00 0.00 99 1013.9
20260831084758 51 185 0.0 0.0 0.00 0.00 0.00 99 1014.1
20260831084254 51 128 0.0 0.0 0.00 0.00 0.00 99 1014.1
20260831083749 51 170 0.0 0.0 0.00 0.00 0.00 99 1014.2
20260831083245 51 188 0.0 0.0 0.00 0.00 0.00 99 1014.3
20260831082743 51 194 0.0 0.0 0.00 0.00 0.00 99 1014.3
20260831082239 51 182 0.0 0.0 0.00 0.00 0.00 99 1013.9
20260831081734 51 208 0.0 0.0 0.00 0.00 0.00 99 1014.2
20260831081230 51 172 0.0 0.0 0.00 0.00 0.00 99 1014.2
20260831080725 51 118 0.0 0.0 0.00 0.00 0.00 98 1014.1
20260831080220 51 134 0.0 0.0 0.00 0.00 0.00 98 1014.2
20260831075716 51 134 0.0 0.0 0.00 0.00 0.00 98 1014.3
20260831075211 51 135 0.0 0.0 0.00 0.00 0.00 98 1014.4
20260831074710 51 135 0.0 0.0 0.00 0.00 0.00 98 1014.3
20260831074204 51 116 0.0 0.0 0.00 0.00 0.00 98 1014.2
20260831073700 52 115 0.0 0.0 0.00 0.00 0.00 98 1014.3
20260831073159 52 116 0.0 0.0 0.00 0.00 0.00 98 1014.4
20260831072655 52 170 0.0 0.0 0.00 0.00 0.00 98 1014.6
20260831072151 52 102 0.0 0.0 0.00 0.00 0.00 98 1014.7
20260831071650 52 71 0.0 0.0 0.00 0.00 0.00 98 1014.8
20260831071145 52 321 0.0 0.0 0.00 0.00 0.00 97 1014.6